Starlink 31676

operational
NORAD ID: 59900 Int'l Des: 2024-100 Owner: SPXS Country: US Constellation: starlink
LEOCIRCULAR

关于 Starlink 31676

正在加载描述...

实时位置

正在加载3D地球...

即将过境

高度历史

Altitude vs Time

uPlot chart will show altitude changes over time

两行轨道根数

1 59900U 24100R 25306.49817330 -.00000156 00000-0 38571-5 0 9993
2 59900 43.0022 123.7820 0000734 243.6288 116.4488 15.27573249 81596
Epoch: Nov 2, 2025 • Age: 27 hours

当前状态

高度 486.6 km
速度 7.63 km/s
星下点 42.41°N, 73.55°W
发射日期 May 28, 2024
运行时间 1.4 years
类型 internet

技术详情

分类 Payload
质量 730.00 kg
干质量 700.00 kg
总质量 730.00 kg
长度 0.30 m
直径 4.10 m
跨度 29.00 m
形状 Box + pan
制造商 SPXS
平台类型 Starlink V2M
阶段状态 In Orbit
所有者/国家 SPXS/US

大型星座

Loading constellations...